GACFB EGPO-EGEI

Flight info

Callsign GACFB
Flight time N/A
Altitude 2800
Route 5810N00619W DCT 5719N00552W 5717N00544W DCT 5715N00549W
Aircraft C172/L-SFG/C

Departure

Time N/A
Airport Stornoway Airport (EGPO)

Arrival

Time 2026-04-28 15:43
Airport Broadford Airstrip (EGEI)
Time Latitude Longitude Altitude Speed Heading
2026-04-28 15:34 57.42350 -5.91923 2035 ft 121 kts 164°
2026-04-28 15:34 57.41546 -5.91498 2003 ft 120 kts 164°
2026-04-28 15:34 57.40739 -5.91071 2000 ft 121 kts 164°
2026-04-28 15:34 57.39933 -5.90645 2000 ft 121 kts 164°
2026-04-28 15:35 57.39113 -5.90214 1998 ft 118 kts 164°
2026-04-28 15:35 57.37693 -5.89469 1998 ft 102 kts 164°
2026-04-28 15:35 57.37015 -5.89112 1999 ft 101 kts 164°
2026-04-28 15:36 57.36339 -5.88756 1999 ft 101 kts 164°
2026-04-28 15:36 57.35669 -5.88405 1995 ft 94 kts 164°
2026-04-28 15:36 57.35052 -5.88083 1841 ft 90 kts 164°
2026-04-28 15:36 57.34465 -5.87776 1664 ft 87 kts 164°
2026-04-28 15:37 57.33893 -5.87476 1523 ft 84 kts 164°
2026-04-28 15:37 57.33334 -5.87181 1502 ft 83 kts 164°
2026-04-28 15:37 57.32769 -5.86882 1500 ft 84 kts 164°
2026-04-28 15:37 57.32394 -5.86684 1500 ft 85 kts 163°
2026-04-28 15:38 57.31767 -5.85823 1500 ft 85 kts 130°
2026-04-28 15:38 57.31405 -5.84939 1466 ft 89 kts 125°
2026-04-28 15:38 57.31080 -5.84032 1405 ft 84 kts 122°
2026-04-28 15:38 57.30763 -5.83079 1398 ft 82 kts 121°
2026-04-28 15:39 57.30468 -5.82158 1400 ft 84 kts 120°
2026-04-28 15:39 57.30170 -5.81212 1293 ft 86 kts 120°
2026-04-28 15:39 57.29873 -5.80262 1119 ft 85 kts 120°
2026-04-28 15:39 57.29580 -5.79317 1012 ft 82 kts 119°
2026-04-28 15:40 57.29298 -5.78399 1003 ft 82 kts 119°
2026-04-28 15:40 57.29012 -5.77468 895 ft 83 kts 119°
2026-04-28 15:40 57.28726 -5.76541 737 ft 83 kts 119°
2026-04-28 15:40 57.28417 -5.75650 700 ft 82 kts 134°
2026-04-28 15:41 57.27904 -5.75257 696 ft 83 kts 177°
2026-04-28 15:41 57.27368 -5.75619 695 ft 83 kts 220°
2026-04-28 15:41 57.27043 -5.76494 699 ft 83 kts 242°
2026-04-28 15:41 57.26782 -5.77465 711 ft 82 kts 243°
2026-04-28 15:42 57.26565 -5.78331 770 ft 69 kts 256°
2026-04-28 15:42 57.26471 -5.79103 716 ft 57 kts 243°
2026-04-28 15:42 57.26273 -5.79763 553 ft 60 kts 240°
2026-04-28 15:42 57.26051 -5.80463 279 ft 70 kts 242°
2026-04-28 15:43 57.25832 -5.81114 164 ft 55 kts 238°
2026-04-28 15:43 57.25651 -5.81675 82 ft 46 kts 234°
2026-04-28 15:43 57.25505 -5.82193 31 ft 44 kts 245°
2026-04-28 15:43 57.25366 -5.82615 29 ft 18 kts 258°
2026-04-28 15:44 57.25378 -5.82597 29 ft 14 kts 51°
2026-04-28 15:44 57.25361 -5.82526 27 ft 0 kts 229°
2026-04-28 15:44 57.25349 -5.82519 27 ft 4 kts 75°
2026-04-28 15:44 57.25352 -5.82510 27 ft 0 kts 64°